Regional Weather Roundup
Issued by NWS

Home | Current Version | Previous Version | Text Only | Print | Product List | Glossary On
Versions: 1 2 3 4 5 6 7 8 9 10 11 12 13 14 15 16 17 18 19 20 21 22 23 24 25 26 27 28 29 30 31 32 33 34 35 36 37 38 39 40 41 42 43 44 45 46 47 48 49 50
000
ASUS44 KOUN 211410
RWROK

WEATHER ROUNDUP FOR OKLAHOMA
NATIONAL WEATHER SERVICE NORMAN OK
900 AM CDT SUN SEP 21 2014

NOTE: "FAIR" INDICATES FEW OR NO CLOUDS BELOW 12,000 FEET WITH NO
      SIGNIFICANT WEATHER AND/OR OBSTRUCTIONS TO VISIBILITY.

OKZ001>007-009>012-014-015-017-211500-
NORTHWEST OKLAHOMA AND THE PANHANDLE

CITY           SKY/WX    TMP DP  RH WIND       PRES   REMARKS
GAGE           PTSUNNY   70  68  93 NE12      30.18R
ENID/WOODRING  PTSUNNY   75  70  83 N12       30.14R
$$

OKZ016-021>023-033>039-044-045-211500-
SOUTHWEST OKLAHOMA

CITY           SKY/WX    TMP DP  RH WIND       PRES   REMARKS
LAWTON/REGL    SUNNY     74  66  76 CALM      30.12R
FREDERICK      SUNNY     75  69  81 SW3       30.10R
CLINTON        MOSUNNY   74  67  78 CALM      30.17R
HOBART         SUNNY     74  66  76 CALM      30.14R
ALTUS AFB      SUNNY     74  69  85 SE3       30.13R
$$

OKZ018>020-024>031-211500-
CENTRAL OKLAHOMA

CITY           SKY/WX    TMP DP  RH WIND       PRES   REMARKS
OKLAHOMA CITY  MOSUNNY   75  67  76 CALM      30.12R
OKC/WILEY POST MOSUNNY   75  66  73 NW3       30.13R
OKC/TINKER AFB SUNNY     76  65  70 W6        30.12R
STILLWATER     CLOUDY    74  69  85 N5        30.12R
GUTHRIE        PTSUNNY   73  67  81 W3        30.12R
$$

OKZ008-013-054>072-211500-
NORTHEAST OKLAHOMA

CITY           SKY/WX    TMP DP  RH WIND       PRES   REMARKS
TULSA          TSTM      72  70  93 NE9       30.11R FOG
TULSA/JONES    CLOUDY    75  69  81 NE7       30.10R
PONCA CITY     MOSUNNY   71  57  61 NE13      30.14R
BARTLESVILLE   CLOUDY    71  65  81 NE8       30.14R
MUSKOGEE       LGT RAIN  72  69  90 N8        30.11R
$$

OKZ032-040>043-046>053-073>077-211500-
SOUTH CENTRAL/SOUTHEAST OKLAHOMA

CITY           SKY/WX    TMP DP  RH WIND       PRES   REMARKS
ARDMORE/DWNTWN SUNNY     72  68  88 CALM      30.10S
MCALESTER      MOSUNNY   73  69  87 S3        30.10R FOG
$$



USA.gov is the U.S. government's official web portal to all federal, state and local government web resources and services.